timestamp,surface_pressure_avg,surface_temp_avg,battery_voltage,lat,long
2022-03-13 00:09:01+00:00,251.5315,1.0,11.93,47.84626,-54.09684
2022-03-13 00:19:00+00:00,258.8614,1.0,11.86,47.84626,-54.09684
2022-03-13 00:29:00+00:00,254.5048,1.0,11.86,47.84626,-54.09684
2022-03-13 00:39:00+00:00,253.4648,1.01,11.86,47.84626,-54.09684
2022-03-13 00:49:00+00:00,266.0547,1.0,11.86,47.84626,-54.09684
2022-03-13 00:59:00+00:00,279.0314,1.0,11.86,47.84626,-54.09684
2022-03-13 01:09:00+00:00,271.203,1.03,11.86,47.84626,-54.09684
2022-03-13 01:19:00+00:00,269.0364,1.07,11.86,47.84626,-54.09684
2022-03-13 01:29:00+00:00,273.8531,1.07,11.86,47.84626,-54.09684
2022-03-13 01:39:00+00:00,267.7798,1.09,11.86,47.84626,-54.09684
2022-03-13 01:49:00+00:00,255.1248,1.1,11.86,47.84626,-54.09684
2022-03-13 01:59:00+00:00,264.6064,1.1,11.86,47.84626,-54.09684
2022-03-13 02:09:00+00:00,271.9248,1.1,11.86,47.84626,-54.09684
2022-03-13 02:19:01+00:00,268.6714,1.1,11.93,47.84626,-54.09684
2022-03-13 02:29:01+00:00,268.3314,1.1,11.93,47.84626,-54.09684
2022-03-13 02:39:01+00:00,275.8381,1.1,11.93,47.84626,-54.09684
2022-03-13 02:49:01+00:00,273.153,1.17,11.93,47.84626,-54.09684
2022-03-13 02:59:01+00:00,269.5447,1.11,11.93,47.84626,-54.09684
2022-03-13 03:09:01+00:00,275.1848,1.16,11.93,47.84626,-54.09684
2022-03-13 03:19:01+00:00,284.6514,1.15,11.93,47.84626,-54.09684
2022-03-13 03:29:01+00:00,283.353,1.17,11.93,47.84626,-54.09684
2022-03-13 03:39:01+00:00,286.5697,1.17,11.93,47.84626,-54.09684
2022-03-13 03:49:01+00:00,291.4497,1.17,11.93,47.84626,-54.09684
2022-03-13 03:59:01+00:00,294.39799999999997,1.19,11.93,47.84626,-54.09684
2022-03-13 04:09:01+00:00,284.908,1.2,11.93,47.84626,-54.09684
2022-03-13 04:19:01+00:00,280.4297,1.18,11.93,47.84626,-54.09684
2022-03-13 04:29:01+00:00,286.5297,1.19,11.93,47.84626,-54.09684
2022-03-13 04:39:01+00:00,286.888,1.2,11.93,47.84626,-54.09684
2022-03-13 04:49:01+00:00,279.1047,1.2,11.93,47.84626,-54.09684
2022-03-13 04:59:01+00:00,283.1747,1.17,11.93,47.84626,-54.09684
2022-03-13 05:09:01+00:00,297.4447,1.2,11.93,47.84626,-54.09684
2022-03-13 05:19:00+00:00,298.878,1.2,11.93,47.84626,-54.09684
2022-03-13 05:29:00+00:00,298.483,1.2,11.93,47.84626,-54.09684
2022-03-13 05:39:00+00:00,312.793,1.14,11.93,47.84626,-54.09684
2022-03-13 05:49:00+00:00,328.3347,1.14,11.93,47.84626,-54.09684
2022-03-13 05:59:00+00:00,321.7047,1.2,11.93,47.84626,-54.09684
2022-03-13 06:09:00+00:00,313.7897,1.16,11.93,47.84626,-54.09684
2022-03-13 06:19:00+00:00,321.483,1.14,11.93,47.84626,-54.09684
2022-03-13 06:29:00+00:00,327.7313,1.16,11.93,47.84626,-54.09684
2022-03-13 06:39:00+00:00,322.5029,1.18,11.93,47.84626,-54.09684
2022-03-13 06:49:00+00:00,321.618,1.17,11.93,47.84626,-54.09684
2022-03-13 06:59:00+00:00,336.1179,1.18,11.93,47.84626,-54.09684
2022-03-13 07:09:00+00:00,340.708,1.19,11.93,47.84626,-54.09684
2022-03-13 07:19:01+00:00,341.4564,1.2,11.93,47.84626,-54.09684
2022-03-13 07:29:01+00:00,339.1897,1.2,11.93,47.84626,-54.09684
2022-03-13 07:39:01+00:00,336.1779,1.2,11.93,47.84626,-54.09684
2022-03-13 07:49:01+00:00,326.8597,1.2,11.93,47.84626,-54.09684
2022-03-13 07:59:01+00:00,319.763,1.2,11.93,47.84626,-54.09684
2022-03-13 08:09:01+00:00,322.6813,1.2,11.93,47.84626,-54.09684
2022-03-13 08:19:00+00:00,327.8513,1.2,11.93,47.84626,-54.09684
2022-03-13 08:29:00+00:00,323.5147,1.2,11.93,47.84626,-54.09684
2022-03-13 08:39:00+00:00,316.5046,1.2,11.93,47.84626,-54.09684
2022-03-13 08:49:00+00:00,320.1364,1.2,11.93,47.84626,-54.09684
2022-03-13 08:59:00+00:00,328.0396,1.2,11.93,47.84626,-54.09684
2022-03-13 09:09:00+00:00,322.8896,1.2,11.93,47.84626,-54.09684
2022-03-13 09:19:01+00:00,313.6863,1.2,11.93,47.84626,-54.09684
2022-03-13 09:29:01+00:00,313.2763,1.2,11.93,47.84626,-54.09684
2022-03-13 09:39:01+00:00,315.7847,1.2,11.93,47.84626,-54.09684
2022-03-13 09:49:01+00:00,313.2313,1.2,11.93,47.84626,-54.09684
2022-03-13 09:59:01+00:00,310.6464,1.2,11.93,47.84626,-54.09684
2022-03-13 10:09:01+00:00,316.808,1.25,11.93,47.84626,-54.09684
2022-03-13 10:19:01+00:00,320.923,1.26,11.93,47.84626,-54.09684
2022-03-13 10:29:01+00:00,322.648,1.27,11.93,47.84626,-54.09684
2022-03-13 10:39:01+00:00,325.6413,1.28,11.93,47.84626,-54.09684
2022-03-13 10:49:01+00:00,327.213,1.3,11.93,47.84626,-54.09684
2022-03-13 10:59:01+00:00,323.2346,1.3,11.93,47.84626,-54.09684
2022-03-13 11:09:01+00:00,323.028,1.3,11.93,47.84626,-54.09684
2022-03-13 11:19:00+00:00,328.8263,1.3,11.93,47.84626,-54.09684
2022-03-13 11:29:00+00:00,313.3896,1.3,11.93,47.84626,-54.09684
2022-03-13 11:39:00+00:00,302.5363,1.37,11.93,47.84626,-54.09684
2022-03-13 11:49:00+00:00,316.0214,1.36,11.93,47.84626,-54.09684
2022-03-13 11:59:00+00:00,319.908,1.39,11.93,47.84626,-54.09684
2022-03-13 12:09:00+00:00,301.2263,1.4,11.93,47.84626,-54.09684
2022-03-13 12:19:00+00:00,286.8047,1.4,11.93,47.84626,-54.09684
2022-03-13 12:29:00+00:00,287.4147,1.4,11.93,47.84626,-54.09684
2022-03-13 12:39:00+00:00,270.7697,1.4,11.93,47.84626,-54.09684
2022-03-13 12:49:00+00:00,255.3047,1.4,11.93,47.84626,-54.09684
2022-03-13 12:59:00+00:00,254.6681,1.4,11.93,47.84626,-54.09684
2022-03-13 13:09:00+00:00,250.8681,1.45,11.93,47.84626,-54.09684
2022-03-13 13:19:00+00:00,239.9047,1.49,11.93,47.84626,-54.09684
2022-03-13 13:29:00+00:00,251.9548,1.5,11.93,47.84626,-54.09684
2022-03-13 13:39:00+00:00,275.5398,1.54,11.93,47.84626,-54.09684
2022-03-13 13:49:00+00:00,277.9564,1.6,11.93,47.84626,-54.09684
2022-03-13 13:59:00+00:00,258.7381,1.64,11.93,47.84626,-54.09684
2022-03-13 14:09:00+00:00,245.7131,1.67,11.93,47.84626,-54.09684
2022-03-13 14:19:00+00:00,237.1765,1.67,11.93,47.84626,-54.09684
2022-03-13 14:29:00+00:00,227.218,1.67,11.93,47.84626,-54.09684
2022-03-13 14:39:00+00:00,220.9081,1.67,11.93,47.84626,-54.09684
2022-03-13 14:49:00+00:00,218.0031,1.6,11.93,47.84626,-54.09684
2022-03-13 14:59:00+00:00,206.8548,1.6,11.93,47.84626,-54.09684
2022-03-13 15:09:00+00:00,200.5914,1.6,11.93,47.84626,-54.09684
2022-03-13 15:19:00+00:00,220.2098,1.62,11.93,47.84626,-54.09684
2022-03-13 15:29:00+00:00,234.3647,1.62,11.93,47.84626,-54.09684
2022-03-13 15:39:00+00:00,226.7714,1.64,11.93,47.84626,-54.09684
2022-03-13 15:49:00+00:00,228.6281,1.7,11.93,47.84626,-54.09684
2022-03-13 15:59:00+00:00,233.3531,1.7,11.93,47.84626,-54.09684
2022-03-13 16:09:00+00:00,225.3614,1.7,11.93,47.84626,-54.09684
2022-03-13 16:19:00+00:00,221.1131,1.7,11.93,47.84626,-54.09684
2022-03-13 16:29:00+00:00,227.7431,1.7,11.93,47.84626,-54.09684
2022-03-13 16:39:00+00:00,231.2498,1.7,11.93,47.84626,-54.09684
2022-03-13 16:49:00+00:00,230.6731,1.76,11.93,47.84626,-54.09684
2022-03-13 16:59:00+00:00,236.8364,1.77,11.93,47.84626,-54.09684
2022-03-13 17:09:00+00:00,248.7247,1.76,11.93,47.84626,-54.09684
2022-03-13 17:19:01+00:00,252.618,1.79,11.93,47.84626,-54.09684
2022-03-13 17:29:01+00:00,257.1014,1.8,11.93,47.84626,-54.09684
2022-03-13 17:39:01+00:00,265.9381,1.79,11.93,47.84626,-54.09684
2022-03-13 17:49:01+00:00,265.7014,1.8,11.93,47.84626,-54.09684
2022-03-13 17:59:01+00:00,261.1613,1.77,11.93,47.84626,-54.09684
2022-03-13 18:09:01+00:00,271.6098,1.78,11.93,47.84626,-54.09684
2022-03-13 18:19:01+00:00,268.4881,1.8,11.93,47.84626,-54.09684
2022-03-13 18:29:01+00:00,262.8747,1.8,11.93,47.84626,-54.09684
2022-03-13 18:39:01+00:00,270.2848,1.79,11.93,47.84626,-54.09684
2022-03-13 18:49:01+00:00,275.9197,1.7,11.93,47.84626,-54.09684
2022-03-13 18:59:01+00:00,271.3047,1.7,11.93,47.84626,-54.09684
2022-03-13 19:09:01+00:00,276.7064,1.5,11.93,47.84626,-54.09684
2022-03-13 19:19:01+00:00,285.183,1.4,11.93,47.84626,-54.09684
2022-03-13 19:29:01+00:00,283.46299999999997,1.39,11.93,47.84626,-54.09684
2022-03-13 19:39:01+00:00,274.3064,1.45,11.93,47.84626,-54.09684
2022-03-13 19:49:01+00:00,272.6331,1.5,11.93,47.84626,-54.09684
2022-03-13 19:59:01+00:00,278.7798,1.4,11.93,47.84626,-54.09684
2022-03-13 20:09:01+00:00,277.83799999999997,1.38,11.93,47.84626,-54.09684
2022-03-13 20:19:00+00:00,272.0348,1.37,11.93,47.84626,-54.09684
2022-03-13 20:29:00+00:00,274.1498,1.37,11.93,47.84626,-54.09684
2022-03-13 20:39:00+00:00,282.328,1.39,11.93,47.84626,-54.09684
2022-03-13 20:49:00+00:00,286.9897,1.39,11.93,47.84626,-54.09684
2022-03-13 20:59:00+00:00,289.4114,1.4,11.93,47.84626,-54.09684
2022-03-13 21:09:00+00:00,292.608,1.4,11.93,47.84626,-54.09684
2022-03-13 21:19:00+00:00,294.0264,1.4,11.93,47.84626,-54.09684
2022-03-13 21:29:00+00:00,289.9614,1.4,11.93,47.84626,-54.09684
2022-03-13 21:39:00+00:00,283.8998,1.4,11.93,47.84626,-54.09684
2022-03-13 21:49:00+00:00,277.6697,1.4,11.93,47.84626,-54.09684
2022-03-13 21:59:00+00:00,269.9064,1.4,11.93,47.84626,-54.09684
2022-03-13 22:09:00+00:00,263.9181,1.4,11.93,47.84626,-54.09684
2022-03-13 22:19:00+00:00,264.7081,1.4,11.86,47.84626,-54.09684
2022-03-13 22:29:00+00:00,266.9764,1.4,11.86,47.84626,-54.09684
2022-03-13 22:39:00+00:00,267.0131,1.4,11.86,47.84626,-54.09684
2022-03-13 22:49:00+00:00,266.2598,1.4,11.86,47.84626,-54.09684
2022-03-13 22:59:00+00:00,260.3931,1.4,11.86,47.84626,-54.09684
2022-03-13 23:09:00+00:00,258.6881,1.4,11.86,47.84626,-54.09684
2022-03-13 23:19:01+00:00,262.8047,1.4,11.86,47.84626,-54.09684
2022-03-13 23:29:01+00:00,260.738,1.4,11.86,47.84626,-54.09684
2022-03-13 23:39:01+00:00,251.6447,1.4,11.86,47.84626,-54.09684
2022-03-13 23:49:01+00:00,254.1131,1.4,11.86,47.84626,-54.09684
2022-03-13 23:59:01+00:00,264.893,1.4,11.86,47.84626,-54.09684
